Regional Weather Roundup
Issued by NWS Upton, NY

Current Version | Previous Version | Text Only | Print | Product List | Glossary Off
Versions: 1 2 3 4 5 6 7 8 9 10 11 12 13 14 15 16 17 18 19 20 21 22 23 24 25 26 27 28 29 30 31 32 33 34 35 36 37 38 39 40 41 42 43 44 45 46 47 48 49 50
000 ASUS41 KOKX 220405 RWROKX REGIONAL WEATHER ROUNDUP NATIONAL WEATHER SERVICE NEW YORK NY 1200 AM EDT MON SEP 22 2014 NOTE: "FAIR" INDICATES FEW OR NO CLOUDS BELOW 12,000 FEET WITH NO SIGNIFICANT WEATHER AND/OR OBSTRUCTIONS TO VISIBILITY. NYZ071-072-176-178-NJZ106-104-220500- NEW YORK CITY METRO AREA CITY SKY/WX TMP DP RH WIND PRES REMARKS CENTRAL PARK MOCLDY 72 65 78 VRB5 29.64F LAGUARDIA APRT PTCLDY 72 66 81 SW10 29.61F KENNEDY INTL PTCLDY 70 67 90 SW8 29.63F NEWARK/LIBERTY MOCLDY 70 67 90 S8 29.62S BRNX BOT. GARD N/A 72 64 78 SW7 29.64R TETERBORO RAIN 72 66 81 W7 29.61S $$ NYZ177-179-078>081-220500- LONG ISLAND NEW YORK CITY SKY/WX TMP DP RH WIND PRES REMARKS FARMINGDALE MOCLDY 70 67 90 SW8 29.62F ISLIP MOCLDY 68 66 93 SW7 29.61S SHIRLEY PTCLDY 68 68 100 SW5 29.63F WESTHAMPTON CLOUDY 69 67 93 SW9 29.63F MONTAUK POINT N/A 68 68 100 CALM 29.62S $$ NYZ052-065-067-220500- HUDSON VALLEY CITY SKY/WX TMP DP RH WIND PRES REMARKS WHITE PLAINS PTCLDY 68 66 93 W5 29.63R NEWBURGH CLOUDY 64 63 94 W12 29.65S MONTGOMERY LGT RAIN 64 61 90 SW6 29.65R POUGHKEEPSIE LGT RAIN 68 63 84 SW8 29.61S ALBANY CLOUDY 61 56 83 S3 29.62S $$ NJZ001-105-106-008-010-013-015-019>022-104-220500- NEW JERSEY CITY SKY/WX TMP DP RH WIND PRES REMARKS NEWARK/LIBERTY MOCLDY 70 67 90 S8 29.62S TETERBORO RAIN 72 66 81 W7 29.61S CALDWELL LGT RAIN 68 65 90 CALM 29.64R MORRISTOWN LGT RAIN 72 64 78 W6 29.64R SOMERVILLE CLOUDY 67 64 90 CALM 29.63S LINDEN FAIR 74 70 87 W5 29.64F SUSSEX LGT RAIN 66 61 84 CALM 29.67R ANDOVER N/A 65 62 90 VRB3 29.68R TRENTON CLOUDY 70 62 76 SW5 29.65F MILLVILLE LGT RAIN 71 64 78 W6 29.69R ATLANTIC CITY PTCLDY 68 65 90 S6 29.66F WRIGHTSTOWN LGT RAIN 70 64 83 W8 29.64R TOMS RIVER MOCLDY 68 64 88 SW3 29.67R BELMAR CLOUDY 68 63 83 SW12 29.65S $$ PAZ047>061-062-071-220500- EASTERN PENNSYLVANIA CITY SKY/WX TMP DP RH WIND PRES REMARKS PHILADELPHIA CLOUDY 73 62 68 SW9 29.67F ALLENTOWN CLOUDY 67 63 87 W5 29.67R SCRANTON CLOUDY 63 60 90 VRB3 29.70R $$ CTZ002-004>006-009-010-012-RIZ004-006-007-MAZ004-011-015-220500- SOUTHERN NEW ENGLAND IN CT CITY SKY/WX TMP DP RH WIND PRES REMARKS BRADLEY INTL MOCLDY 69 67 93 SW5 29.58S HARTFORD CLOUDY 68 67 96 S5 29.58F FOG DANBURY MOCLDY 66 65 96 SW7 29.63S FOG WTRBRY/OXFORD MOCLDY 66 63 88 W6 29.64R BRIDGEPORT MOCLDY 70 69 97 SW6 29.60F MERIDEN FOG 67 65 93 S3 29.60F VSB 1/4 NEW HAVEN FOG 70 68 93 CALM 29.60F VSB 1/2 CHESTER FOG 68 68 100 SW6 29.62S VSB 3/4 GROTON CLOUDY 67 67 100 SW6 29.60S WILLIMANTIC FOG 68 67 96 MISG 29.60S VSB 1 IN RI CITY SKY/WX TMP DP RH WIND PRES REMARKS PROVIDENCE CLOUDY 67 67 100 SW6 29.59S FOG BLOCK ISLAND MOCLDY 66 64 94 SW9 29.61S WESTERLY CLOUDY 66 65 96 CALM 29.61S IN MA CITY SKY/WX TMP DP RH WIND PRES REMARKS BOSTON MOCLDY 70 68 93 W6 29.55F WORCESTER FOG 66 66 100 W9 29.60S VSB 1/2 WESTFIELD CLOUDY 68 66 93 S3 29.58F FOG PROVINCETOWN CLOUDY 66 64 94 W7 29.55F VSB 1/2 NANTUCKET CLOUDY 66 64 94 W8 29.56F $$ ANZ330-335-338-340-345-350-353-355-220500- COASTAL MARINE OBSERVATIONS STATION/POSITION TIME SKY/WX TEMP WIND PRES VSBY WAVE AIR SEA DIR/SP/G HT/PER (UTC) (F) (DEG/KT/KT) (MB) (MI) (FT/S) NY HARB ENTRANCE 0400 70 71 210/ 12/ 14 1003.8 3/ 8 4S FIRE IS 0400 70 N/A 4/ 8 20S FIRE ISLAND 0300 69 69 240/ 12/ 12 1004.3 4/ 8 23SW MTP 0400 N/A 4/ 7 HUDSON CANYON 0400 69 70 260/ 14/ 16 1004.4 4/ 8 EXECUTION ROCKS 0400 71 70 180/ 10/ 12 N/A WESTERN LI SOUND 0400 71 210/ 10/ 12 N/A 0 CENTRAL LI SOUND 0300 69 71 230/ 10/ 14 N/A 0 EASTERN LI SOUND 0300 68 68 210/ 4/ 6 N/A ROBBINS REEF 0400 71 260/ 12/ 14 1002.0 $$ >>>>>>>>>>>>>>>>>>>>>>>>>>>> KEY <<<<<<<<<<<<<<<<<<<<<<<<<<< > < > SKY/WX - SKY CONDITION/PRESENT WEATHER < > TMP - TEMPERATURE IN FAHRENHEIT < > DP - DEWPOINT IN FAHRENHEIT < > RH - RELATIVE HUMIDITY IN PERCENT < > WIND - DIRECTION AND SPEED IN MPH < > PRES - MEAN SEA LEVEL PRESSURE IN INCHES OF HG < > WCI - WIND CHILL INDEX < > VSB - VISIBILITY IN MILES < > HX - HEAT INDEX < > TC - TEMPERATURE IN CELSIUS < > VRB - VARIABLE WIND DIRECTION < > < >>>>>>>>>>>>>>>>>>>>>>>>>>>> KEY <<<<<<<<<<<<<<<<<<<<<<<<<<<

USA.gov is the U.S. government's official web portal to all federal, state and local government web resources and services.